Regional Weather Roundup
Issued by NWS

Home | Current Version | Previous Version | Graphics & Text | Print | Product List | Glossary Off
Versions: 1 2 3 4 5 6 7 8 9 10 11 12 13 14 15 16 17 18 19 20 21 22 23 24 25 26 27 28 29 30 31 32 33 34 35 36 37 38 39 40 41 42 43 44 45 46 47 48 49 50

000
ASUS43 KMPX 230610
RWRMN
WEATHER ROUNDUP FOR MINNESOTA
NATIONAL WEATHER SERVICE TWIN CITIES/CHANHASSEN MN
100 AM CDT SAT SEP 23 2017


NOTE: "FAIR" INDICATES FEW OR NO CLOUDS BELOW 12,000 FEET WITH NO
SIGNIFICANT WEATHER AND/OR OBSTRUCTIONS TO VISIBILITY. N/A MEANS
CURRENT SKY AND/OR WEATHER CONDITIONS ARE NOT AVAILABLE.

MNZ060>063-068>070-230700-
   Twin Cities Metro

CITY           SKY/WX    TMP DP  RH WIND       PRES   REMARKS
TWIN CITIES    MOCLDY    82  69  64 S8        29.86S
6HR MIN TEMP:  81; 6HR MAX TEMP:  89;

ST PAUL        CLOUDY    77  69  76 S8        29.87R
CRYSTAL        PTCLDY    81  65  58 S15G22    29.84R
BLAINE         MOCLDY    82  68  61 S8G16     29.85S
LAKEVILLE      PTCLDY    77  66  69 S8G16     29.87R
EDEN PRAIRIE   MOCLDY    80  68  66 SW8       29.85R
6HR MIN TEMP:  80; 6HR MAX TEMP:  88;

SOUTH ST PAUL  MOCLDY    79  66  65 S5        29.87R
LAKE ELMO      FAIR      79  68  69 S13       29.88S
$$
MNZ001>005-007-008-013>017-022>024-027-028-230700-
   Northwest Minnesota

CITY           SKY/WX    TMP DP  RH WIND       PRES   REMARKS
BEMIDJI        CLOUDY    75  64  68 SW10G22   29.75R
HALLOCK          N/A     54  52  94 N14G21    29.80R
ROSEAU         CLOUDY    55  52  88 N14       29.74R
WARROAD        CLOUDY    59  55  88 N9G18     29.74R
THIEF RVR FALL CLOUDY    55  53  93 NW12      29.79R
CROOKSTON      CLOUDY    55  52  88 N15       29.80R
FOSSTON        CLOUDY    57  54  88 W12       29.81R
DETROIT LAKES  CLOUDY    59  54  82 NW13      29.82F
MOORHEAD       CLOUDY    55  52  88 N12       29.84R
PARK RAPIDS    CLOUDY    74  63  68 SW15G22   29.78R
MAHNOMEN       CLOUDY    56  54  91 W10       29.82R
$$
MNZ006-009>011-018-025>026-230700-
   North Central Minnesota

CITY           SKY/WX    TMP DP  RH WIND       PRES   REMARKS
BAUDETTE       CLOUDY    66  66 100 W6        29.70R
FLAG ISLAND    CLOUDY    59  57  94 N14       29.71F
INTL FALLS     CLOUDY    69  64  84 CALM      29.72R THUNDER
6HR MIN TEMP:  68; 6HR MAX TEMP:  76; 6HR PCP:  0.01;

WASKISH        CLOUDY    72  68  88 CALM      29.71R
BIG FORK       PTCLDY    79  70  73 S13G21    29.74R
LONGVILLE      CLOUDY    79  66  65 SW14G20   29.77R
GRAND RAPIDS   CLOUDY    79  69  71 SW10      29.77R
CRANE LAKE     CLOUDY    73  68  83 S6        29.73S
ORR            CLOUDY    73  66  78 S9        29.72R
COOK           CLOUDY    75  66  73 S7        29.76R
WALKER         FAIR      76  65  67 SW15G21   29.75R
$$
MNZ012-019>021-037-230700-
   Northeast Minnesota

CITY           SKY/WX    TMP DP  RH WIND       PRES   REMARKS
DULUTH         CLOUDY    71  66  84 S12       29.81S
6HR MIN TEMP:  66; 6HR MAX TEMP:  71;

ELY            CLOUDY    73  64  73 S8        29.79R
HIBBING        CLOUDY    74  67  78 CALM      29.76R
EVELETH        MOCLDY    73  64  73 S6        29.79R
DULUTH HARBOR  CLOUDY    63  61  94 N5        29.80S
TWO HARBORS    CLOUDY    64  59  82 CALM      29.80R
SILVER BAY     PTCLDY    61  61 100 CALM      29.80R
GRAND MARAIS     N/A     64  62  93 NE3       29.81R
G MARAIS ARPRT PTCLDY    64  61  88 CALM      29.87R
$$
MNZ029>031-032-039>041-046>048-054>057-064-230700-
   West Central Minnesota

CITY           SKY/WX    TMP DP  RH WIND       PRES   REMARKS
FERGUS FALLS   CLOUDY    63  57  82 NW8       29.82R THUNDER
WHEATON        TSTM      55  54  94 NW13      29.83F
MORRIS         CLOUDY    68  63  83 NW24      29.85R
ALEXANDRIA     PTCLDY    68  63  84 CALM      29.80S
ELBOW LAKE     FAIR      63  58  86 NW12      29.83R THUNDER
WADENA         CLOUDY    72  63  73 SW7       29.79S
GLENWOOD       MOCLDY    66  63  88 SE9       29.80F
APPLETON       CLOUDY    72  66  83 W8        29.81R
BENSON         CLOUDY    72  64  78 SE7       29.80S
ORTONVILLE     CLOUDY    64  59  82 N8        29.82S
MADISON        CLOUDY    72  70  94 NW9       29.82R
WILLMAR        FAIR      72  66  83 CALM      29.84R
$$
MNZ033>034-036-042>043-049>051-058-059-230700-
   Central Minnesota

CITY           SKY/WX    TMP DP  RH WIND       PRES   REMARKS
ST CLOUD       CLOUDY    76  68  76 W3        29.84R
6HR MIN TEMP:  76; 6HR MAX TEMP:  84;

SAUK CENTRE    MOCLDY    67  63  87 E6        29.81F
PAYNESVILLE    CLOUDY    71  67  88 E3        29.83F
AITKIN         DRIZZLE   79  66  65 SW14G24   29.75R
PINE RIVER     CLOUDY    75  63  64 SW14G24   29.80R
BRAINERD       LGT RAIN  78  65  63 SW29G40   29.81R
STAPLES        MOCLDY    73  59  60 S14G20    29.79F
LONG PRAIRIE   MOCLDY    68  63  83 SE8       29.81F
LITTLE FALLS   TSTM      70  57  64 SW6       29.84S
LITCHFIELD     PTCLDY    79  70  73 S3        29.84S
BUFFALO        CLOUDY    78  67  69 S3        29.85R
MAPLE LAKE     CLOUDY    79  70  73 S7        29.85F
HUTCHINSON     CLEAR     79  70  73 S8        29.85S
$$
MNZ037-044-045-052-053-230700-
   East Central Minnesota

CITY           SKY/WX    TMP DP  RH WIND       PRES   REMARKS
PRINCETON      CLOUDY    81  70  69 S9        29.83F
MORA           CLOUDY    77  64  65 SW9G17    29.85R
CAMBRIDGE      CLOUDY    82  66  57 S9G16     29.84S
RUSH CITY      CLOUDY    79  67  68 SW5       29.86R
MOOSE LAKE     CLOUDY    77  66  69 S14G22    29.79R
HINCKLEY       FAIR      79  70  73 S9        29.83R
CLOQUET        MOCLDY    79  64  61 S14G23    29.79R
MCGREGOR       CLOUDY    79  68  69 S20G35    29.77S
$$
MNZ071>073-080-081-089-090-097-098-230700-
   Southwest Minnesota

CITY           SKY/WX    TMP DP  RH WIND       PRES   REMARKS
MONTEVIDEO     CLOUDY    73  72  94 S3        29.79S
GRANITE FALLS  PTCLDY    80  69  70 S9        29.81S
CANBY          CLOUDY    69  65  88 NW9       29.84R
MARSHALL       PTCLDY    79  69  71 SW23G31   29.78S
REDWOOD FALLS  PTCLDY    80  67  64 S17G28    29.81S
OLIVIA         PTCLDY    77  66  69 S12G20    29.81S
PIPESTONE      PTCLDY    75  66  73 S12       29.86R
WINDOM         PTCLDY    79  66  65 S14G22    29.87R
WORTHINGTON    PTCLDY    76  68  76 S16G23    29.87S
JACKSON        CLOUDY    77  66  69 S14G21    29.89S
TRACY          PTCLDY    78  69  73 S10G20    29.83S
SLAYTON        CLOUDY    77  63  61 S10G20    29.86S
$$
MNZ065>067-074>077-082>085-091>093-230700-
   South Central Minnesota

CITY           SKY/WX    TMP DP  RH WIND       PRES   REMARKS
MANKATO        MOCLDY    77  68  73 S9G17     29.88R
NEW ULM        CLOUDY    79  66  65 S12       29.85S
ST JAMES       CLOUDY    79  66  65 S16       29.88R
FAIRMONT       CLEAR     77  68  73 S15       29.89R
FARIBAULT      CLOUDY    75  66  73 S9        29.89S
OWATONNA       PTCLDY    77  66  69 S13G20    29.90S
WASECA         PTCLDY    77  64  65 S14G22    29.91R
ALBERT LEA     PTCLDY    79  68  69 S12G18    29.91S
$$
MNZ078>079-086>088-094>096-230700-
   Southeast Minnesota

CITY           SKY/WX    TMP DP  RH WIND       PRES   REMARKS
ROCHESTER      CLEAR     76  66  71 S15       29.93S
6HR MIN TEMP:  75; 6HR MAX TEMP:  83;

RED WING       PTCLDY    81  64  57 SE6       29.87S
STANTON        PTCLDY    79  67  66 S8G16     29.86R
DODGE CENTER   PTCLDY    75  64  69 S14G21    29.92R
WINONA         CLEAR     79  64  61 S3        29.92S
AUSTIN         PTCLDY    75  64  69 S12       29.93S
PRESTON        CLEAR     73  64  73 S13       29.95S
$$
ABBREVIATIONS USED IN REMARKS
   TC - TEMPERATURES IN CELSIUS
  WCI - WIND CHILL INDEX
   HX - HEAT INDEX
  VSB - VISIBILITY
$$




USA.gov is the U.S. government's official web portal to all federal, state and local government web resources and services.